Zurück zum Katalog

DELTA 1 DEB

AktivLEO
NORAD 7039·DEBRIS·🇺🇸 United States

Gestartet Nov 6, 1973 von Vandenberg Space Force Base

Loading…

Nächste Überflüge (nächste 24 Stunden)

TLE

AktuellSource: Space-Track

Epoche: Sep 14, 2026, 06:45 UTC

1 07039U 73086AF  26257.28132747  .00000010  00000-0  37565-3 0  9999
2 07039 102.5508 263.5190 0130049 130.7629 244.9706 12.49620756408245

Verfolge DELTA 1 DEB in Echtzeit mit AllMySat

Download on the App Store